Погода в Тулуне

Погода в Тулуне : погода сейчас, прогноз погоды и архив. Всё, что Вы хотите узнать о погоде в Тулуне!

Хотите узнать прогноз погоды в Тулуне? Тогда Вам сюда: Погода в Тулуне

Поиск расширенной информации на нашем сайте:

Другие новости

Новости СМИ2

Главная страница сайта

Новости сайта

03.07.2017

Напоминаем, что на нашем специализированном сайте Метеоцентр.Азия вы можете получить высокодетализированные автоматические прогнозы погоды по пунктам России, СНГ и мира в авиационном формате (включающие направление и скорость ветра, видимость, явления погоды, количество и форму облачности, нижнюю и верхнюю границу облачности).


Погода в Тулуне - сегодня

Время (UTC), дата Ветер
(°,м/с) 
Видим.   Явления Облачность Т
(°С)
Тd
(°С)
f(%) Тe
(°С)
Pmin
(гПа)
dP
(гПа)
Po
(мм)
O2
(г/м3)
Тmin Tmax R s Состояние
почвы
06 17.10.18 310 (СЗ) 20000 м    9/0 средняя, верхняя 
[Ac trans|Ci sp]
+8 +1.6 64 +7  1021.8  0.5  720  281           
09 17.10.18 320 (СЗ) 20000 м    9/0 средняя, верхняя 
[Ac trans|Ci sp]
+8.5 +1.4 61 +10  1021.9  0.2  720  281           
12 17.10.18 040 (СВ) н/о    8/0 верхняя 
[Ci sp]
+2.6 -0.1 82 +2  1024.4  1.1  721  287    +8.8       
15 17.10.18 тихо ()   н/о    9/0 верхняя 
[Ci sp]
+0.9 -0.2 92 +1  1024.8  721  289           
18 17.10.18 050 (СВ) н/о    9/0 верхняя 
[Ci sp]
-1.5 -1.9 97 -2  1024.6  -0.7  720  292           
21 17.10.18 040 (СВ) н/о    9/0 верхняя 
[Ci sp]
-1.5 -1.7 99 -1  1023.6  -1  719  292           
00 18.10.18 040 (СВ) 0500 м  туман  8/0 верхняя 
[Ci sp]
-2.4 -2.5 99 -3  1023.6  -0.2  719  293  -2.5         
03 18.10.18 040 (СВ) 0500 м  туман  10/10 300 м 
[St]
-0.1 -0.2 99 -1  1022.7  -0.3  719  290           
06 18.10.18 300 (СЗ) 20000 м  {туман}  10/10 300 м 
[St]
+2.5 +1.8 95 +3  1020.7  -1.2  718  286           
09 18.10.18 360 (С) 20000 м    9/4 600 м средняя, верхняя 
[Sc|Ac trans|Ci sp]
+3.1 +1.5 89 +3  1020.6  718  286           
12 18.10.18 290 (З) н/о    9/6 600 м средняя, верхняя 
[Sc|Ac trans|Ci sp]
+0.8 +0.6 99 +1  1022.1  0.9  719  289    +3.2       
15 18.10.18 тихо ()   н/о    8/3 600 м средняя, верхняя 
[Sc|Ac trans|Ci sp]
-2.5 -2.6 99 -3  1023.5  0.5  719  293           
18 18.10.18 020 (С) н/о    9/3 600 м средняя, верхняя 
[Sc|Ac trans|Ci sp]
+0.9 +0.8 99 +2  1022.7  0.1  719  289           
21 18.10.18 020 (С) н/о    9/3 600 м средняя, верхняя 
[Sc|Ac trans|Ci sp]
+1.5 +1.4 99 +1  1022.6  719  288           
00 19.10.18 350 (С) н/о    10/4 600 м средняя 
[Sc|Ac As]
+1.6 +1.1 96 +2  1022.6  719  288  -2.7         
03 19.10.18 030 (СВ) 20000 м    10/6 600 м кучево-дожд., средняя 
[Cb calv|Ac As]
+2.3 +1.1 92 +1  1021.5  -0.8  719  287           
06 19.10.18 040 (СВ) 20000 м    9/9 600 м кучево-дожд. 
[Cb calv]
+3.9 +0.7 80 +3  1018.7  -2.3  717  285           
09 19.10.18 350 (С) 20000 м    9/6 600 м кучево-дожд., средняя 
[Cb calv|Ac trans]
+4.9 +0.5 73 +5  1017.7  -0.7  716  283           
12 19.10.18 050 (СВ) н/о    9/8 600 м кучево-дожд., средняя 
[Cb calv|Ac trans]
+2.9 -0.1 81 +2  1018.3  0.2  716  286    +5.1       
15 19.10.18 тихо ()   н/о    9/8 600 м кучево-дожд., средняя 
[Cb calv|Ac trans]
+2.1 +0.1 87 +2  1018.2  -0.3  716  286           
18 19.10.18 330 (СЗ) н/о    н/о 
+2.2 +0.1 86 +3  1017.4  -0.7  716  286           
21 19.10.18 320 (СЗ) н/о    9/6 600 м кучево-дожд., средняя 
[Cb calv|Ac trans]
+1.7 -0.6 85 +2  1017.4  -0.1  716  286           
00 20.10.18 300 (СЗ) 20000 м  {ливн. осадки}  9/6 600 м кучево-дожд., средняя 
[Cb calv|Ac trans]
+0.7 +0.3 97 +1  1018.1  0.4  716  288  +0.7    0.3     
03 20.10.18 300 (СЗ) 20000 м  слаб. ливневой дождь  10/8 600 м кучево-дожд., средняя 
[Cb calv|Ac As]
+1.4 +0.4 93 +1  1018.5  0.5  716  287           
06 20.10.18 290 (З) 20000 м  слаб. ливневой снег  10/8 600 м кучево-дожд., средняя 
[Cb calv|Ac As]
+1.4 +0.4 93 +1  1018.9  0.4  716  287           
Время (UTC), дата Ветер
(°,м/с) 
Видим.   Явления Облачность Т
(°С)
Тd
(°С)
f(%) Тe
(°С)
Pmin
(гПа)
dP
(гПа)
Po
(мм)
O2
(г/м3)
Тmin Tmax R s Состояние
почвы

Для получения пояснительной информации подведите курсор к названию столбца.

ПОГОДА в Тулуне - архив

Всё, что Вы хотите узнать о погоде в Тулуне - удобно и подробно!

Выберите нужную дату (начиная с 1 января 2015* года) и нажмите кнопку "Найти".
Будут отображены архивные сводки погоды по пункту Тулун, начиная с указанной даты.


Отображать данные в формате CSV (для использования в таблицах Excel)


Внимание! Наш архив погоды предназначен исключительно для личного некоммерческого использования в познавательных целях. Если Вам необходимы официальные справки о состоянии погоды (для производственных, юридических, коммерческих и т.п. целей), обращайтесь в органы Росгидромета.

*Примечание: данная дата относится к архиву по метеостанциям СССР (Россия, СНГ, Балтия).
Архив по метеостанциям Зарубежной Европы и Азии (кроме Китая) хранится 10 дней, по другим регионам земного шара (Китай, Африка, Америка, Австралия, Океания) - 1 день.

Тулун - район местоположения метеостанции


Название, широта, долгота, высота метеостанции:
Тулун 54.6°ш. 100.6°д. 522 м над ур. моря [Российская Федерация]

Дополнительная информация

В oтличие oт бoльшинства пoгoдных сайтoв мы публикуем пoдрoбную метеoинфoрмацию в детальнoм прoфессиoнальнoм фoрмате.

Характеристики температуры и влажнoсти вoздуха измеряются на высoте 2 м в тени вдали oт зданий и деревьев.
Скoрoсть ветра измеряется на высoте 10 м (на урoвне рoста челoвека скoрoсть ветра ниже в 1.5-2 раза). Если метеoстанция нахoдится в гoрoде или в лесу, тo скoрoсть ветра занижена на 2-4 м/с пo сравнению с oткрытым местoм. Скoрoсть ветра над акватoриями крупных рек и oзёр, а также на вершинах хoлмoв на 2-5 м/с выше, чем в oбычных услoвиях.
Атмoсфернoе давление в разных тoчках местнoсти мoжет значительнo oтличаться oт давления на метеoстанции, в зависимoсти oт услoвий рельефа (при пoдъёме на 10 м давление пoнижается примернo на 1 мм рт.ст.).